User: anonymous
Location: NJAA Observatory
(40.6819°N, 74.8979°W)
Time: 09:52:14
(UTC-04:00)
Language:

Iridium 4 - Orbit

View from above orbital plane
View from above orbital plane
View from above satellite
View from above satellite

Ground track
Ground track

The orbit data is extracted from the following two-line orbital elements,

1 24796U 97020E   14272.44144366  .00000454  00000-0  15371-3 0   268
2 24796 086.4008 012.9590 0002333 109.2607 296.9228 14.34706128911070
Epoch (UTC): 29 September 2014 10:35:40
Eccentricity: 0.0002333
inclination: 86.4008°
perigee height: 774 km
apogee height: 778 km
right ascension of ascending node: 12.9590°
argument of perigee: 109.2607°
revolutions per day: 14.34706128
mean anomaly at epoch: 296.9228°
orbit number at epoch: 91107

The dashed part of the orbit path shows where the satellite is in the earth's shadow,  

DLR